STARLINK-4317, 53058

Orbit data source: Space-Track

STARLINK-4317, 53058 is a payload satellite owned by SpaceX/Seattle (US) in SSO that was launched on Mon, 11 Jul 2022 UTC via an FALCON 9 launch vehicle from the Air Force Western Test Range (AFWTR). Payload-class satellites include a variety of spacecraft equipped with specific instruments for various scientific and technological missions. These include communications satellites like Starlink; space stations such as the ISS; scientific satellites like the Hubble; Earth observation satellites from companies like Planet Labs, Umbra, and HawkEye 360; GPS; miniature CubeSats for education and research; and military/defense satellites.

Loading next visibility...
Identifier
53058, 2022-077R
Orbit
SSO
Country
Flag of USUS
Related business
Manufacturer
SpaceX/Seattle
Mission
Operational Commercial Communications
Bus & Motor
STARLINK, Unknown motor
Mass
297 kg wet, ~275 kg dry
Launch date (UTC)
2022-07-11 (3 years ago)
Launch vehicle
FALCON 9
Launch site
Air Force Western Test Range (AFWTR)
Object type
Payload
Rocket body
Debris
Shape & HBR
Box + 1 Pan, 10.1 m
Radar Cross Section
13.562 m², Large (>1 m²)

Expand to show TLE details & history
Last TLE update: 1 day ago

TLE from 1 day ago
0 STARLINK-4317
1 53058U 22077R   25348.45578096  .00001088  00000-0  89249-4 0  9998
2 53058  97.6036 166.7383 0001737  82.2762 277.8659 15.01259486188139
Epoch: 2025-12-14T10:56Z
TLE epoch observation values (Epoch: 2025-12-14T10:56:19.474Z)
Latitude
-0.00011°
Longitude
-80.71127°
Altitude
565.906 km
Speed
7.578 km/s
True Right ascension
11h 06m 57s
True Declination
0° 00' 00"
Sunlit
Object was in daylight at epoch
Visualization orbit readout
Latitude
Unknown
Longitude
Unknown
Altitude
Unknown
Speed
Unknown
Apparent Right ascension
Unknown
Apparent Declination
Unknown
Sunlit
N/A
Visualization observer readout
Local Sidereal Time
15:09:25
Azimuth
Unknown
Elevation
Unknown
Doppler factor
Unknown
Orbital elements
Apogee altitude
561.216 km
Perigee altitude
558.806 km
Semi-major axis
6,938.148 km
Eccentricity
0.00017
Inclination
97.6036°
RAAN
166.7383°
Arg. of periapsis
82.2762°
True anomaly
277.84618°
Mean anomaly
277.8659°
Eccentric anomaly
277.85604°
Mean motion
3.75559 °/min
Orbital period
95.86 mins
BSTAR
0.000089249
Loading maneuver chart data...
Computing Atmospheric mass density...
Loading historical data...
Loading historical data...
Loading historical data...
Loading historical data...
Loading historical data...
Loading historical data...
Loading historical data...

Documentation

Showing up to 5 results
|